Regional Weather Roundup
Issued by NWS Charleston, SC

Current Version | Previous Version | Graphics & Text | Print | Product List | Glossary On
Versions: 1 2 3 4 5 6 7 8 9 10 11 12 13 14 15 16 17 18 19 20 21 22 23 24 25 26 27 28 29 30 31 32 33 34 35 36 37 38 39 40 41 42 43 44 45 46 47 48 49 50
000 ASUS42 KCHS 282213 RWRCHS REGIONAL WEATHER ROUNDUP NATIONAL WEATHER SERVICE CHARLESTON SC 600 PM EDT THU JUL 28 2016 NOTE: "FAIR" INDICATES FEW OR NO CLOUDS BELOW 12,000 FEET WITH NO SIGNIFICANT WEATHER AND/OR OBSTRUCTIONS TO VISIBILITY. NOT ALL STATIONS ARE QUALITY CONTROLLED. USE DATA WITH CAUTION... ESPECIALLY DEWPOINT OBSERVATIONS. SCZ027-030-031-034>040-042>050-282300- ...SOUTHEAST SOUTH CAROLINA... CITY SKY/WX TMP DP RH WIND PRES REMARKS N CHARLESTON MOSUNNY 94 74 52 SW15 29.93S HX 104 WATERFRONT PRK N/A 89 79 72 S9 29.92F HX 104 MOUNT PLEASANT FAIR 91 79 66 S14 29.93F HX 107 JOHNS ISLAND FAIR 91 79 66 S14 29.94F HX 107 PINOPOLIS N/A 95 72 46 SW12 29.83F HX 103 MONCKS CORNER FAIR 91 64 40 SW7G18 29.92F HX 93 SUMMERVILLE NOT AVBL BEAUFORT MCAS MOSUNNY 93 77 59 S8 29.93F HX 107 BEAUFORT ARPT FAIR 90 79 70 S12G18 29.93F HX 105 HILTON HEAD IS SUNNY 95 79 59 S14 29.95F HX 112 WALTERBORO CLEAR 99 63 30 SW10 29.93F HX 100 ALLENDALE FAIR 97 68 38 VRB7 29.91F HX 101 ...SOUTHERN MIDLANDS AND PEE DEE... CITY SKY/WX TMP DP RH WIND PRES REMARKS GEORGETOWN FAIR 90 77 66 S10 29.93S HX 102 KINGSTREE FAIR 95 63 34 S13G18 29.90S HX 96 ORANGEBURG MOSUNNY 97 66 36 SW16 29.91F HX 100 BARNWELL NOT AVBL AIKEN FAIR 95 66 38 SW13G22 29.95F HX 98 MANNING FAIR 95 64 36 SW12G31 29.90F HX 97 COLUMBIA MOSUNNY 99 66 33 W14G25 29.88F HX 103 SUMTER SUNNY 98 65 34 SW16G24 29.87S HX 100 FLORENCE SUNNY 96 70 42 SW15G23 29.88F HX 102 MYRTLE BEACH MOSUNNY 91 72 52 S16G24 29.92F HX 98 N MYRTLE BEACH SUNNY 89 76 65 SW18 29.90F HX 100 $$ GAZ063-065-086>088-099>101-113>116-118-119-134>141-150-282300- ...SOUTHEAST GEORGIA... CITY SKY/WX TMP DP RH WIND PRES REMARKS SAVANNAH ARPT MOSUNNY 99 64 31 W10 29.94F HX 101 HUNTER AAF NOT AVBL FORT STEWART NOT AVBL STATESBORO SUNNY 97 68 39 W8 29.94S HX 102 SYLVANIA NOT AVBL CLAXTON FAIR 97 67 37 SW9G17 29.94S HX 101 ...CSRA...CENTRAL AND FAR SOUTHEAST GEORGIA... CITY SKY/WX TMP DP RH WIND PRES REMARKS THOMSON NOT AVBL AUGUSTA-BUSH MOSUNNY 98 65 33 W15G22 29.91S HX 101 AUGUSTA-DANIEL MOSUNNY 96 65 35 W12G22 29.93F HX 98 SWAINSBORO FAIR 97 63 32 W12G17 29.95F HX 98 VIDALIA MOSUNNY 99 63 30 W10 29.96S HX 100 EASTMAN FAIR 97 38 13 W7 29.99S HX 92 HAZLEHURST FAIR 98 67 36 SW12G17 29.96S HX 101 ALMA MOSUNNY 96 64 34 W9G21 29.97S HX 98 WAYCROSS SUNNY 101 68 34 W10 29.97R HX 107 JESUP FAIR 99 70 39 W7 29.95F HX 105 BAXLEY FAIR 97 70 41 W10 29.96S HX 103 BRUNSWICK PTSUNNY 91 81 70 SE8 29.97S HX 110 SAINT SIMONS SUNNY 89 78 70 S12G20 29.97F HX 103 $$ SCZ027-028-034-036>038-045-046-048>050-GAZ119-141-282300- ...LAKE AND SUPPLEMENTAL COASTAL OBSERVATIONS... STATION/POSITION TIME TEMP WIND PRES WAVE SWELL AIR SEA DIR/SP/G HT/PER HT/PER/DIR (UTC) (F) (DEG/KT/KT) (MB) (FT/S) (FT/S/D) WINYAH BAY 2045 89 190/ 14 1013.0 LAKE MURRAY 2100 94 230/ 11/ 18 1011.5F ACE BASIN NERRS NOT AVBL FORT PULASKI 2100 90 88 170/ 8/ 17 1014.8F SAPELO ISLAND 2100 92 160/ 14 1015.0S $$ ANZ835-935-AMZ111-154-330-350-352-354-370-450-454-472-282300- ...C-MAN AND BUOY OBSERVATIONS... STATION/POSITION TIME TEMP WIND PRES WAVE SWELL AIR SEA DIR/SP/G HT/PER HT/PER/DIR (UTC) (F) (DEG/KT/KT) (MB) (FT/S) (FT/S/D) BUOY 41004 2150 87 86 210/ 16/ 17 1013.6F 3/ 5 2/150/ 8 BUOY 41008 2150 87 87 160/ 14/ 16 1014.3F 2/ 4 2/110/ 8 FOLLY BEACH CMAN 2200 87 200/ 17/ 20 1014.1F CAPERS NEARSHORE 2108 86 85 220/ 17/ 23 1013.7F FRIPP NEARSHORE 2108 87 87 190/ 16/ 21 1013.3F STATION/POSITION TIME TEMP WIND PRES WAVE SWELL AIR SEA DIR/SP/G HT/PER HT/PER/DIR (UTC) (F) (DEG/KT/KT) (MB) (FT/S) (FT/S/D) 5E ST. MARYS GA 2201 86 N/A 2/ 3 FRYING PAN BUOY 2100 86 85 220/ 16/ 17 1013.1F BUOY 41025 2150 87 86 230/ 16/ 17 1011.5S 3/ 5 2/210/ 6 CAPE LOOKOUT NC 2200 87 220/ 10/ 14 1011.5F BUOY 41002 2150 84 85 230/ 12/ 12 1015.1S 3/ 6 3/250/ 6 BUOY 41010 2120 86 88 260/ 4/ 6 1017.5 ST AUGUSTINE FL 2200 85 86 120/ 12/ 13 1016.7R $$

USA.gov is the U.S. government's official web portal to all federal, state and local government web resources and services.